Regional Weather Roundup
Issued by NWS

Home | Current Version | Previous Version | Graphics & Text | Print | Product List | Glossary On
Versions: 1 2 3 4 5 6 7 8 9 10 11 12 13 14 15 16 17 18 19 20 21 22 23 24 25 26 27 28 29 30 31 32 33 34 35 36 37 38 39 40 41 42 43 44 45 46 47 48 49 50
000
ASUS43 KFSD 300110
RWRSD

WEATHER ROUNDUP FOR SOUTH DAKOTA
NATIONAL WEATHER SERVICE SIOUX FALLS SD
800 PM CDT TUE JUL 29 2014

NOTE: "FAIR" INDICATES FEW OR NO CLOUDS BELOW 12,000 FEET WITH NO
SIGNIFICANT WEATHER AND/OR OBSTRUCTIONS TO VISIBILITY.


SDZ001>005-009-010-012>017-300200-
NORTHWEST AND NORTH CENTRAL SOUTH DAKOTA

CITY           SKY/WX    TMP DP  RH WIND       PRES   REMARKS
BUFFALO          N/A     78  49  35 S5        30.10F
FAITH            N/A     79  51  37 SE7       30.15F
MOBRIDGE       CLOUDY    77  55  46 NE5       30.10F
$$

SDZ012>016-024>037-041>051-057-063-072>074-300200-
SOUTHWEST AND SOUTH CENTRAL SOUTH DAKOTA

CITY           SKY/WX    TMP DP  RH WIND       PRES   REMARKS
RAPID CTY ARPT PTSUNNY   71  53  52 SE5       30.21S
PIERRE         SUNNY     79  51  37 NE9       30.11F
CUSTER         CLOUDY    61  50  67 S5        30.32R
ELLSWORTH AFB  PTSUNNY   70  55  58 SW6       30.21S
PHILIP         PTSUNNY   80  47  31 E7        30.13F
PINE RIDGE     PTSUNNY   68  55  63 E6        30.22R
WINNER         FAIR      79  48  33 E3        30.14S
$$

SDZ004>011-016>023-039-040-300200-
NORTHEAST SOUTH DAKOTA

CITY           SKY/WX    TMP DP  RH WIND       PRES   REMARKS
ABERDEEN       CLEAR     73  53  49 NE5       30.11F
WATERTOWN      CLEAR     71  51  49 NW6       30.12F
SISSETON         N/A     73  58  59 N5        30.09F
$$

SDZ017-020-022-023-036>040-048>070-300200-
SOUTHEAST SOUTH DAKOTA

CITY           SKY/WX    TMP DP  RH WIND       PRES   REMARKS
SIOUX FALLS    PTCLDY    72  54  53 NW6       30.12F
HURON          CLEAR     75  53  46 N5        30.10F
CHAMBERLAIN    CLEAR     75  52  43 E3        30.12S
MITCHELL       CLEAR     74  57  55 N5        30.11F
YANKTON        CLEAR     73  55  53 E3        30.12F
$$

ABBREVIATIONS USED IN REMARKS
   TC - TEMPERATURE IN CELSIUS
  WCI - WIND CHILL INDEX
   HX - HEAT INDEX
  VSB - VISIBILITY



USA.gov is the U.S. government's official web portal to all federal, state and local government web resources and services.